2024/01/26 00:00:00,41.2,-2.8
2024/01/26 00:10:00,41.0,-2.6
2024/01/26 00:20:00,40.9,-2.7
2024/01/26 00:30:00,40.9,-2.8
2024/01/26 00:40:00,40.7,-2.8
2024/01/26 00:50:00,40.6,-2.8
2024/01/26 01:00:00,40.5,-3.0
2024/01/26 01:10:00,40.4,-2.8
2024/01/26 01:20:00,40.4,-2.9
2024/01/26 01:30:00,40.4,-3.1
2024/01/26 01:40:00,40.5,-3.2
2024/01/26 01:50:00,40.6,-3.2
2024/01/26 02:00:00,40.7,-3.1
2024/01/26 02:10:00,40.8,-3.0
2024/01/26 02:20:00,40.7,-3.0
2024/01/26 02:30:00,40.7,-2.8
2024/01/26 02:40:00,41.0,-2.8
2024/01/26 02:50:00,41.0,-2.8
2024/01/26 03:00:00,41.0,-2.8
2024/01/26 03:10:00,41.0,-2.8
2024/01/26 03:20:00,41.1,-2.8
2024/01/26 03:30:00,41.2,-2.1
2024/01/26 03:40:00,41.1,-2.6
2024/01/26 03:50:00,40.9,-2.3
2024/01/26 04:00:00,40.8,-2.4
2024/01/26 04:10:00,40.7,-2.3
2024/01/26 04:20:00,40.6,-2.3
2024/01/26 04:30:00,40.5,-2.4
2024/01/26 04:40:00,40.4,-2.4
2024/01/26 04:50:00,40.4,-2.2
2024/01/26 05:00:00,40.3,-2.4
2024/01/26 05:10:00,40.2,-2.5
2024/01/26 05:20:00,40.1,-2.1
2024/01/26 05:30:00,40.1,-2.3
2024/01/26 05:40:00,40.0,-2.4
2024/01/26 05:50:00,40.0,-2.3
2024/01/26 06:00:00,40.0,-2.3
2024/01/26 06:10:00,39.9,-2.3
2024/01/26 06:20:00,39.8,-2.3
2024/01/26 06:30:00,39.7,-2.4
2024/01/26 06:40:00,39.8,-1.8
2024/01/26 06:50:00,39.7,-2.4
2024/01/26 07:00:00,39.6,-2.1
2024/01/26 07:10:00,39.6,-2.1
2024/01/26 07:20:00,39.5,-2.0
2024/01/26 07:30:00,39.4,-2.1
2024/01/26 07:40:00,39.4,-1.9
2024/01/26 07:50:00,39.3,-2.2
2024/01/26 08:00:00,39.3,-2.1
2024/01/26 08:10:00,39.3,-2.1
2024/01/26 08:20:00,39.3,-1.9
2024/01/26 08:30:00,39.2,-1.9
2024/01/26 08:40:00,39.2,-1.6
2024/01/26 08:50:00,39.3,-1.2
2024/01/26 09:00:00,39.2,-1.1
2024/01/26 09:10:00,39.2,-1.1
2024/01/26 09:20:00,39.2,-1.2
2024/01/26 09:30:00,39.1,-1.0
2024/01/26 09:40:00,39.0,-1.2
2024/01/26 09:50:00,38.9,-0.8
2024/01/26 10:00:00,38.7,-1.2
2024/01/26 10:10:00,38.7,-1.3
2024/01/26 10:20:00,38.8,-0.9
2024/01/26 10:30:00,38.8,-1.1
2024/01/26 10:40:00,38.8,-1.1
2024/01/26 10:50:00,38.7,-0.8
2024/01/26 11:00:00,38.7,-0.1
2024/01/26 11:10:00,38.7,-0.3
2024/01/26 11:20:00,38.6,-0.4
2024/01/26 11:30:00,38.3,-0.7
2024/01/26 11:40:00,38.3,-0.7
2024/01/26 11:50:00,38.4,-0.9
2024/01/26 12:00:00,38.4,-1.0
2024/01/26 12:10:00,38.3,-0.4
2024/01/26 12:20:00,38.2, 0.6
2024/01/26 12:30:00,38.2, 0.4
2024/01/26 12:40:00,38.1, 1.1
2024/01/26 12:50:00,38.1, 0.8
2024/01/26 13:00:00,38.0, 1.9
2024/01/26 13:10:00,37.8, 2.6
2024/01/26 13:20:00,37.4, 2.7
2024/01/26 13:30:00,37.4, 1.5
2024/01/26 13:40:00,37.4, 1.0
2024/01/26 13:50:00,37.3, 1.1
2024/01/26 14:00:00,37.2, 0.6
2024/01/26 14:10:00,37.1, 0.7
2024/01/26 14:20:00,37.1, 0.3
2024/01/26 14:30:00,37.0, 0.0
2024/01/26 14:40:00,37.0, 0.0
2024/01/26 14:50:00,37.1,-0.1
2024/01/26 15:00:00,37.1,-0.3
2024/01/26 15:10:00,37.0,-0.3
2024/01/26 15:20:00,37.0,-0.6
2024/01/26 15:30:00,36.9,-0.8
2024/01/26 15:40:00,36.9,-0.6
2024/01/26 15:50:00,36.9,-0.8
2024/01/26 16:00:00,36.9,-0.8
2024/01/26 16:10:00,37.1,-1.0
2024/01/26 16:20:00,37.2,-0.9
2024/01/26 16:30:00,37.2,-1.1
2024/01/26 16:40:00,37.2,-0.9
2024/01/26 16:50:00,37.2,-1.1
2024/01/26 17:00:00,37.1,-1.0
2024/01/26 17:10:00,37.0,-1.0
2024/01/26 17:20:00,37.1,-0.8
2024/01/26 17:30:00,37.0,-1.1
2024/01/26 17:40:00,37.1,-1.2
2024/01/26 17:50:00,37.1,-1.0
2024/01/26 18:00:00,37.1,-1.1
2024/01/26 18:10:00,37.0,-0.8
2024/01/26 18:20:00,37.1,-1.0
2024/01/26 18:30:00,37.2,-1.1
2024/01/26 18:40:00,37.2,-1.2
2024/01/26 18:50:00,37.2,-1.2
2024/01/26 19:00:00,37.1,-1.1
2024/01/26 19:10:00,37.1,-1.1
2024/01/26 19:20:00,37.1,-1.0
2024/01/26 19:30:00,37.1,-1.1
2024/01/26 19:40:00,37.1,-1.0
2024/01/26 19:50:00,37.0,-1.1
2024/01/26 20:00:00,36.9,-1.1
2024/01/26 20:10:00,36.9,-1.1
2024/01/26 20:20:00,36.8,-1.1
2024/01/26 20:30:00,36.8,-1.1
2024/01/26 20:40:00,36.7,-1.2
2024/01/26 20:50:00,36.7,-1.0
2024/01/26 21:00:00,36.6,-1.1
2024/01/26 21:10:00,36.6,-0.9
2024/01/26 21:20:00,36.6,-0.6
2024/01/26 21:30:00,36.6,-1.1
2024/01/26 21:40:00,36.4,-0.7
2024/01/26 21:50:00,36.4,-1.0
2024/01/26 22:00:00,36.3,-0.9
2024/01/26 22:10:00,36.3,-1.2
2024/01/26 22:20:00,36.2,-1.1
2024/01/26 22:30:00,36.2,-1.1
2024/01/26 22:40:00,36.1,-0.9
2024/01/26 22:50:00,36.0,-0.9
2024/01/26 23:00:00,36.0,-1.0
2024/01/26 23:10:00,35.9,-1.2
2024/01/26 23:20:00,35.8,-1.1
2024/01/26 23:30:00,35.8,-0.4
2024/01/26 23:40:00,35.7,-1.1
2024/01/26 23:50:00,35.7,-0.8
